Location: Holiday Acres Laynes 2 Mobile Home Park
(26.7249°N, 81.8671°W)
Time: 12:46:02
(UTC+00:00)

H-2A R/B - Pass Details

Date: 25 November 2020
Orbit: 578 x 654 km, 98.5° (Epoch: 24 January)

Event Time Altitude Azimuth Distance (km) Brightness Sun altitude
Rises 22:48:04 0° 3° (N) 2,834 5.2 -3.7°
Reaches altitude 10° 22:50:17 10° 356° (N) 1,940 4.4 -4.1°
Maximum altitude 22:54:15 42° 285° (WNW) 875 3.4 -5.0°
Drops below altitude 10° 22:58:18 10° 215° (SW) 1,975 5.6 -5.8°
Sets 23:00:35 0° 208° (SSW) 2,891 6.3 -6.3°
